Regional Weather Roundup
Issued by NWS Upton, NY

Home | Current Version | Previous Version | Text Only | Print | Product List | Glossary On
Versions: 1 2 3 4 5 6 7 8 9 10 11 12 13 14 15 16 17 18 19 20 21 22 23 24 25 26 27 28 29 30 31 32 33 34 35 36 37 38 39 40 41 42 43 44 45 46 47 48 49 50
000
ASUS41 KOKX 300505
RWROKX

REGIONAL WEATHER ROUNDUP
NATIONAL WEATHER SERVICE NEW YORK NY
1200 AM EST FRI JAN 30 2015

NOTE: "FAIR" INDICATES FEW OR NO CLOUDS BELOW 12,000 FEET WITH NO
SIGNIFICANT WEATHER AND/OR OBSTRUCTIONS TO VISIBILITY.

NYZ071-072-176-178-NJZ106-104-300600-
NEW YORK CITY METRO AREA


CITY           SKY/WX    TMP DP  RH WIND       PRES   REMARKS
CENTRAL PARK   LGT SNOW  32  27  81 VRB3      30.00F
LAGUARDIA APRT LGT SNOW  31  27  85 SW9       30.00F VSB 1   WCI  23
KENNEDY INTL   FLURRIES  35  29  78 SW12      30.02F WCI  27
NEWARK/LIBERTY LGT SNOW  30  28  93 S3        29.99F FOG
BRNX BOT. GARD   N/A    N/A N/A N/A S7        30.00F
TETERBORO      LGT SNOW  30  27  88 S7        29.99F VSB 1   WCI  23
$$

NYZ177-179-078>081-300600-
LONG ISLAND NEW YORK

CITY           SKY/WX    TMP DP  RH WIND       PRES   REMARKS
FARMINGDALE    FLURRIES  35  29  78 W5        30.00F WCI  31
ISLIP          CLOUDY    35  30  82 S3        29.98F
SHIRLEY        CLOUDY    37  31  78 SW3       30.01F
WESTHAMPTON    CLOUDY    38  31  76 SW3       30.02F
MONTAUK POINT    N/A     37  31  78 SE3       30.02F
$$

NYZ052-065-067-300600-
HUDSON VALLEY

CITY           SKY/WX    TMP DP  RH WIND       PRES   REMARKS
WHITE PLAINS   LGT SNOW  30  25  81 S9        29.96F HAZE    WCI  22
NEWBURGH       LGT SNOW  27  25  93 S8        29.95F VSB 1   WCI  18
MONTGOMERY     LGT SNOW  27  24  89 CALM      29.94F VSB 1
POUGHKEEPSIE   LGT SNOW  30  27  88 S5        29.97F FOG     WCI  25
ALBANY         FLURRIES  28  22  78 S15       29.91F WCI  16
$$

NJZ001-105-106-008-010-013-015-019>022-104-300600-
NEW JERSEY

CITY           SKY/WX    TMP DP  RH WIND       PRES   REMARKS
NEWARK/LIBERTY LGT SNOW  30  28  93 S3        29.99F FOG
TETERBORO      LGT SNOW  30  27  88 S7        29.99F VSB 1   WCI  23
CALDWELL       LGT SNOW  28  26  92 S3        29.98F FOG
MORRISTOWN     LGT SNOW  30  27  86 CALM      29.98F
SOMERVILLE     LGT SNOW  29  26  89 SE3       29.97F FOG
SUSSEX         LGT SNOW  26  23  88 CALM      29.93F FOG
ANDOVER          N/A     26  23  88 VRB3      29.93F
TRENTON        FLURRIES  30  25  81 SE5       29.97F WCI  25
MILLVILLE      LGT RAIN  35  26  69 S6        29.96F WCI  30
ATLANTIC CITY  CLOUDY    36  28  73 S9        29.98F WCI  29
WRIGHTSTOWN    CLOUDY    32  25  77 SE2       29.96F
TOMS RIVER     CLOUDY    34  28  80 S5        29.99F WCI  30
BELMAR         CLOUDY    32  25  74 CALM      29.99F
$$

PAZ047>061-062-071-300600-
EASTERN PENNSYLVANIA

CITY           SKY/WX    TMP DP  RH WIND       PRES   REMARKS
PHILADELPHIA   CLOUDY    34  21  59 SE3       29.97F
ALLENTOWN      LGT SNOW  29  24  82 CALM      29.94F
SCRANTON       LGT SNOW  28  21  75 SW6       29.86F WCI  22
$$

CTZ002-004>006-009-010-012-RIZ004-006-007-MAZ004-011-015-300600-
SOUTHERN NEW ENGLAND
 IN CT

CITY           SKY/WX    TMP DP  RH WIND       PRES   REMARKS
BRADLEY INTL   CLOUDY    29  23  78 CALM      29.99F
HARTFORD       CLOUDY    28  24  85 E3        30.01F
DANBURY        LGT SNOW  30  23  75 S5        29.98F WCI  25
WTRBRY/OXFORD  CLOUDY    28  21  74 S7        29.96F WCI  21
BRIDGEPORT     CLOUDY    32  29  88 E5        30.00F WCI  27
MERIDEN        CLOUDY    29  24  82 CALM      30.00F
NEW HAVEN      CLOUDY    32  27  81 E3        30.00F
CHESTER        MIX PCPN  32  30  93 CALM      30.00F
GROTON         CLOUDY    35  31  85 SE13      30.02F WCI  26
WILLIMANTIC    CLOUDY    29  22  75 CALM      30.02F

 IN RI

CITY           SKY/WX    TMP DP  RH WIND       PRES   REMARKS
PROVIDENCE     CLOUDY    29  23  78 CALM      30.05F
BLOCK ISLAND   CLOUDY    37  28  70 SE8       30.01F WCI  31
WESTERLY       CLOUDY    36  30  79 S9        30.03F WCI  29

 IN MA

CITY           SKY/WX    TMP DP  RH WIND       PRES   REMARKS
BOSTON         CLOUDY    28  22  78 SE5       30.06F WCI  23
WORCESTER      CLOUDY    25  20  81 S6        29.98F WCI  18
WESTFIELD      CLOUDY    28  24  85 CALM      29.99F
PROVINCETOWN   CLOUDY    32  25  74 S8        30.08F WCI  25
NANTUCKET      CLOUDY    33  27  78 S5        30.07F WCI  29
$$

ANZ330-335-338-340-345-350-353-355-300600-
COASTAL MARINE OBSERVATIONS


STATION/POSITION TIME  SKY/WX   TEMP    WIND        PRES    VSBY  WAVE
                                AIR SEA DIR/SP/G                  HT/PER
                 (UTC)          (F)     (DEG/KT/KT) (MB)    (MI)  (FT/S)
NY HARB ENTRANCE 0500            38 40  220/ 14/ 16 1015.8          3/ 4
4S FIRE IS       0500               37                N/A           3/ 4
20S FIRE ISLAND  0400               42              1017.6          3/ 4
23SW MTP         0500                                 N/A           2/ 9
HUDSON CANYON    NOT AVBL
EXECUTION ROCKS  0500            34 33  210/ 14/ 19   N/A
WESTERN LI SOUND 0500            33     120/  2/  4   N/A           0
CENTRAL LI SOUND 0400            35 35  200/  2/  2   N/A           0
EASTERN LI SOUND NOT AVBL
ROBBINS REEF     0500            30     210/  8/ 10 1015.1
$$


>>>>>>>>>>>>>>>>>>>>>>>>>>>> KEY <<<<<<<<<<<<<<<<<<<<<<<<<<<
>                                                          <
>     SKY/WX - SKY CONDITION/PRESENT WEATHER               <
>     TMP    - TEMPERATURE IN FAHRENHEIT                   <
>     DP     - DEWPOINT IN FAHRENHEIT                      <
>     RH     - RELATIVE HUMIDITY IN PERCENT                <
>     WIND   - DIRECTION AND SPEED IN MPH                  <
>     PRES   - MEAN SEA LEVEL PRESSURE IN INCHES OF HG     <
>     WCI    - WIND CHILL INDEX                            <
>     VSB    - VISIBILITY IN MILES                         <
>     HX     - HEAT INDEX                                  <
>     TC     - TEMPERATURE IN CELSIUS                      <
>     VRB    - VARIABLE WIND DIRECTION                     <
>                                                          <
>>>>>>>>>>>>>>>>>>>>>>>>>>>> KEY <<<<<<<<<<<<<<<<<<<<<<<<<<<




USA.gov is the U.S. government's official web portal to all federal, state and local government web resources and services.